Find Starlink 30504

NORAD ID: 57980 Int'l Des: 2023-151 Owner: SPXS Country: US Constellation: starlink decayed
LEOCIRCULAR

Re-entered — 17. März 2026

3D-Globus wird geladen...

About Starlink 30504

Starlink 30504 (NORAD 57980) is a starlink constellation satellite (v2 mini) launched Sep 30, 2023 by SPXS of US. It re-entered the atmosphere on Mar 17, 2026. with a mass of 730.00 kg.

Über Starlink 30504

Beschreibung wird geladen...

Höhenverlauf

Loading altitude history...

Zweizeiliger Elementsatz

1 57980U 23151S 26076.38474370 .09312982 92335-5 23561-2 0 9998
2 57980 42.9682 156.8852 0014939 26.3442 333.8203 16.27578042138527
Epoch: 17. März 2026 • Age: 2242 hours

Aktueller Status

Position data unavailable
Startdatum 30. Sept. 2023
Alter 2.7 years
Verglühungsdatum 17. März 2026
Typ internet

Technische Details

Klassifizierung Payload
Masse 730.00 kg
Trockenmasse 700.00 kg
Gesamtmasse 730.00 kg
Länge 0.30 m
Durchmesser 4.10 m
Spannweite 29.00 m
Form Box + pan
Hersteller SPXS
Bus-Typ Starlink V2M
Phasenstatus Unknown Transfer Status
Besitzer/Staat SPXS/US

Most Searched